Time,TemperatureF,DewpointF,PressureIn,WindDirection,WindDirectionDegrees,WindSpeedMPH,WindSpeedGustMPH,Humidity,HourlyPrecipIn,Conditions,Clouds,dailyrainin,SoftwareType,DateUTC
2013-04-09 00:00:00,45.7,36.9,30.06,North,0,1.6,2.2,71,0.00,,,-99.99,meteobridge,2013-04-09 04:00:00,
2013-04-09 00:02:00,45.7,36.9,30.06,North,0,1.6,1.6,71,0.00,,,0.00,meteobridge,2013-04-09 04:02:00,
2013-04-09 00:07:00,46.0,36.9,30.06,NE,45,1.6,1.6,70,0.00,,,0.00,meteobridge,2013-04-09 04:07:00,
2013-04-09 00:12:00,46.0,36.9,30.06,North,0,0.7,3.1,70,0.00,,,0.00,meteobridge,2013-04-09 04:12:00,
2013-04-09 00:17:00,46.0,36.9,30.06,North,0,1.6,2.2,70,0.00,,,0.00,meteobridge,2013-04-09 04:17:00,
2013-04-09 00:23:00,46.2,36.7,30.06,North,0,1.6,2.2,69,0.00,,,0.00,meteobridge,2013-04-09 04:23:00,
2013-04-09 00:28:00,46.4,36.5,30.06,East,90,1.6,1.6,68,0.00,,,0.00,meteobridge,2013-04-09 04:28:00,
2013-04-09 00:33:00,46.4,36.5,30.06,NE,45,2.2,2.2,68,0.00,,,0.00,meteobridge,2013-04-09 04:33:00,
2013-04-09 00:38:00,46.4,36.5,30.06,NNE,23,3.1,3.8,68,0.00,,,0.00,meteobridge,2013-04-09 04:38:00,
2013-04-09 00:43:00,46.4,36.5,30.06,NE,45,2.2,2.2,68,0.00,,,0.00,meteobridge,2013-04-09 04:43:00,
2013-04-09 00:49:00,46.0,36.5,30.06,North,0,2.2,2.2,69,0.00,,,0.00,meteobridge,2013-04-09 04:49:00,
2013-04-09 00:54:00,46.0,36.5,30.06,North,0,2.2,3.1,69,0.00,,,0.00,meteobridge,2013-04-09 04:54:00,
2013-04-09 00:59:00,46.2,36.7,30.06,North,0,2.2,2.2,69,0.00,,,0.00,meteobridge,2013-04-09 04:59:00,
2013-04-09 01:04:00,46.2,36.3,30.06,NE,45,3.1,3.1,68,0.00,,,0.00,meteobridge,2013-04-09 05:04:00,
2013-04-09 01:09:00,46.0,36.5,30.06,East,90,1.6,2.2,69,0.00,,,0.00,meteobridge,2013-04-09 05:09:00,
2013-04-09 01:14:00,45.9,36.3,30.05,NE,45,2.2,2.2,69,0.00,,,0.00,meteobridge,2013-04-09 05:14:00,
2013-04-09 01:19:00,45.9,36.7,30.04,NE,45,1.6,2.2,70,0.00,,,0.00,meteobridge,2013-04-09 05:19:00,
2013-04-09 01:24:00,45.9,37.0,30.04,NW,315,0.7,1.6,71,0.00,,,0.00,meteobridge,2013-04-09 05:24:00,
2013-04-09 01:29:00,45.9,37.0,30.03,NE,45,2.2,3.1,71,0.00,,,0.00,meteobridge,2013-04-09 05:29:00,
2013-04-09 01:34:00,46.0,37.2,30.03,East,90,2.2,3.1,71,0.00,,,0.00,meteobridge,2013-04-09 05:34:00,
2013-04-09 01:40:00,45.9,37.0,30.03,NE,45,3.8,3.8,71,0.00,,,0.00,meteobridge,2013-04-09 05:40:00,
2013-04-09 01:45:00,45.9,37.4,30.03,North,0,3.1,3.1,72,0.00,,,0.00,meteobridge,2013-04-09 05:45:00,
2013-04-09 01:50:00,46.0,37.6,30.03,NE,45,3.1,3.8,72,0.00,,,0.00,meteobridge,2013-04-09 05:50:00,
2013-04-09 01:55:00,46.0,37.6,30.03,NNE,23,2.2,2.2,72,0.00,,,0.00,meteobridge,2013-04-09 05:55:00,
2013-04-09 02:00:00,46.2,37.8,30.03,NE,45,5.4,5.4,72,0.00,,,0.00,meteobridge,2013-04-09 06:00:00,
2013-04-09 02:05:00,46.2,37.8,30.02,NE,45,5.4,5.4,72,0.00,,,0.00,meteobridge,2013-04-09 06:05:00,
2013-04-09 02:11:00,46.2,38.1,30.01,East,90,2.2,3.1,73,0.00,,,0.00,meteobridge,2013-04-09 06:11:00,
2013-04-09 02:16:00,46.2,38.5,30.01,North,0,2.2,2.2,74,0.00,,,0.00,meteobridge,2013-04-09 06:16:00,
2013-04-09 02:21:00,46.2,38.5,30.01,North,0,2.2,2.2,74,0.00,,,0.00,meteobridge,2013-04-09 06:21:00,
2013-04-09 02:26:00,46.0,38.3,30.01,North,0,1.6,3.1,74,0.00,,,0.00,meteobridge,2013-04-09 06:26:00,
2013-04-09 02:31:00,46.0,38.3,30.01,East,90,1.6,1.6,74,0.00,,,0.00,meteobridge,2013-04-09 06:31:00,
2013-04-09 02:36:00,46.0,38.3,30.01,ENE,68,2.2,2.2,74,0.00,,,0.00,meteobridge,2013-04-09 06:36:00,
2013-04-09 02:42:00,46.0,38.5,30.01,NE,45,3.1,3.1,75,0.00,,,0.00,meteobridge,2013-04-09 06:42:00,
2013-04-09 02:47:00,46.4,38.8,30.01,NNE,23,2.2,3.8,75,0.00,,,0.00,meteobridge,2013-04-09 06:47:00,
2013-04-09 02:52:00,46.6,39.0,30.00,North,0,3.1,3.8,75,0.00,,,0.00,meteobridge,2013-04-09 06:52:00,
2013-04-09 02:57:00,46.8,39.2,30.00,East,90,2.2,3.8,75,0.00,,,0.00,meteobridge,2013-04-09 06:57:00,
2013-04-09 03:02:00,46.8,39.6,29.99,North,0,3.8,3.8,76,0.00,,,0.00,meteobridge,2013-04-09 07:02:00,
2013-04-09 03:07:00,46.6,39.4,30.00,North,0,4.5,4.5,76,0.00,,,0.00,meteobridge,2013-04-09 07:07:00,
2013-04-09 03:13:00,46.6,39.4,30.00,NE,45,2.2,2.2,76,0.00,,,0.00,meteobridge,2013-04-09 07:13:00,
2013-04-09 03:18:00,46.4,39.6,30.00,NE,45,1.6,2.2,77,0.00,,,0.00,meteobridge,2013-04-09 07:18:00,
2013-04-09 03:23:00,46.2,39.4,30.00,NE,45,3.8,3.8,77,0.00,,,0.00,meteobridge,2013-04-09 07:23:00,
2013-04-09 03:28:00,46.2,39.7,29.99,North,0,3.8,3.8,78,0.00,,,0.00,meteobridge,2013-04-09 07:28:00,
2013-04-09 03:33:00,46.0,39.6,30.00,North,0,3.8,3.8,78,0.00,,,0.00,meteobridge,2013-04-09 07:33:00,
2013-04-09 03:38:00,46.0,39.6,29.99,East,90,1.6,3.1,78,0.00,,,0.00,meteobridge,2013-04-09 07:38:00,
2013-04-09 03:44:00,45.9,39.7,29.99,NE,45,2.2,2.2,79,0.00,,,0.00,meteobridge,2013-04-09 07:44:00,
2013-04-09 03:49:00,45.9,39.7,29.99,North,0,3.1,4.5,79,0.00,,,0.00,meteobridge,2013-04-09 07:49:00,
2013-04-09 03:54:00,46.0,39.9,29.98,NE,45,3.1,3.8,79,0.00,,,0.00,meteobridge,2013-04-09 07:54:00,
2013-04-09 03:59:00,46.0,39.9,29.98,East,90,2.2,2.2,79,0.00,,,0.00,meteobridge,2013-04-09 07:59:00,
2013-04-09 04:04:00,46.2,40.1,29.98,East,90,2.2,3.1,79,0.00,,,0.00,meteobridge,2013-04-09 08:04:00,
2013-04-09 04:09:00,46.2,40.1,29.97,North,0,2.2,3.1,79,0.00,,,0.00,meteobridge,2013-04-09 08:09:00,
2013-04-09 04:14:00,46.4,39.9,29.97,NW,315,2.2,3.1,78,0.00,,,0.00,meteobridge,2013-04-09 08:14:00,
2013-04-09 04:19:00,46.9,40.1,29.97,North,0,3.8,4.5,77,0.00,,,0.00,meteobridge,2013-04-09 08:19:00,
2013-04-09 04:24:00,47.3,40.1,29.96,NE,45,3.1,3.1,76,0.00,,,0.00,meteobridge,2013-04-09 08:24:00,
2013-04-09 04:29:00,47.5,40.3,29.96,North,0,7.6,7.6,76,0.00,,,0.00,meteobridge,2013-04-09 08:29:00,
2013-04-09 04:34:00,47.8,40.6,29.96,North,0,2.2,3.8,76,0.00,,,0.00,meteobridge,2013-04-09 08:34:00,
2013-04-09 04:40:00,47.8,40.6,29.96,North,0,2.2,3.8,76,0.00,,,0.00,meteobridge,2013-04-09 08:40:00,
2013-04-09 04:45:00,47.8,40.6,29.95,North,0,5.4,5.4,76,0.00,,,0.00,meteobridge,2013-04-09 08:45:00,
2013-04-09 04:50:00,47.7,40.5,29.94,North,0,3.1,3.1,76,0.00,,,0.00,meteobridge,2013-04-09 08:50:00,
2013-04-09 04:55:00,47.3,40.5,29.94,North,0,3.1,3.8,77,0.00,,,0.00,meteobridge,2013-04-09 08:55:00,
2013-04-09 05:00:00,46.9,40.5,29.94,North,0,4.5,4.5,78,0.00,,,0.00,meteobridge,2013-04-09 09:00:00,
2013-04-09 05:05:00,46.6,40.5,29.95,NE,45,2.2,3.1,79,0.00,,,0.00,meteobridge,2013-04-09 09:05:00,
2013-04-09 05:11:00,46.2,40.6,29.95,NE,45,3.8,4.5,81,0.00,,,0.00,meteobridge,2013-04-09 09:11:00,
2013-04-09 05:16:00,46.0,40.8,29.94,NE,45,3.1,3.1,82,0.00,,,0.00,meteobridge,2013-04-09 09:16:00,
2013-04-09 05:21:00,46.2,41.4,29.94,North,0,3.1,3.1,83,0.00,,,0.00,meteobridge,2013-04-09 09:21:00,
2013-04-09 05:26:00,46.4,42.1,29.93,North,0,4.5,4.5,85,0.00,,,0.00,meteobridge,2013-04-09 09:26:00,
2013-04-09 05:31:00,46.8,42.4,29.93,NE,45,3.1,3.8,85,0.00,,,0.00,meteobridge,2013-04-09 09:31:00,
2013-04-09 05:37:00,47.1,43.2,29.93,NE,45,3.8,3.8,86,0.00,,,0.00,meteobridge,2013-04-09 09:37:00,
2013-04-09 05:42:00,47.5,43.5,29.92,NE,45,4.5,4.5,86,0.00,,,0.00,meteobridge,2013-04-09 09:42:00,
2013-04-09 05:47:00,47.8,44.2,29.91,North,0,3.8,5.4,87,0.00,,,0.00,meteobridge,2013-04-09 09:47:00,
2013-04-09 05:52:00,47.8,44.2,29.91,NE,45,5.4,5.4,87,0.00,,,0.00,meteobridge,2013-04-09 09:52:00,
2013-04-09 05:57:00,48.0,44.6,29.91,NE,45,3.8,4.5,88,0.00,,,0.00,meteobridge,2013-04-09 09:57:00,
2013-04-09 06:02:00,48.4,45.3,29.91,North,0,3.1,4.5,89,0.00,,,0.00,meteobridge,2013-04-09 10:02:00,
2013-04-09 06:08:00,48.4,45.5,29.91,SE,135,4.5,4.5,90,0.00,,,0.00,meteobridge,2013-04-09 10:08:00,
2013-04-09 06:13:00,48.4,45.9,29.91,East,90,3.8,8.3,91,0.00,,,0.00,meteobridge,2013-04-09 10:13:00,
2013-04-09 06:18:00,48.4,45.9,29.91,NE,45,4.5,4.5,91,0.00,,,0.00,meteobridge,2013-04-09 10:18:00,
2013-04-09 06:23:00,48.4,45.9,29.93,NE,45,4.5,4.5,91,0.00,,,0.00,meteobridge,2013-04-09 10:23:00,
2013-04-09 06:28:00,47.3,45.3,29.93,East,90,4.5,4.5,93,0.00,,,0.00,meteobridge,2013-04-09 10:28:00,
2013-04-09 06:33:00,47.3,45.7,29.91,NW,315,6.9,6.9,94,0.01,,,0.01,meteobridge,2013-04-09 10:33:00,
2013-04-09 06:39:00,47.5,46.4,29.90,NE,45,4.5,4.5,96,0.02,,,0.02,meteobridge,2013-04-09 10:39:00,
2013-04-09 06:44:00,47.8,46.9,29.89,NW,315,4.5,6.0,97,0.02,,,0.02,meteobridge,2013-04-09 10:44:00,
2013-04-09 06:49:00,48.2,47.3,29.88,NW,315,2.2,5.4,97,0.04,,,0.04,meteobridge,2013-04-09 10:49:00,
2013-04-09 06:54:00,48.4,47.8,29.88,North,0,5.4,5.4,98,0.04,,,0.04,meteobridge,2013-04-09 10:54:00,
2013-04-09 06:59:00,49.3,49.1,29.91,NE,45,7.6,7.6,99,0.04,,,0.04,meteobridge,2013-04-09 10:59:00,
2013-04-09 07:04:00,49.8,49.5,29.88,NE,45,3.1,6.0,99,0.08,,,0.08,meteobridge,2013-04-09 11:04:00,
2013-04-09 07:10:00,49.6,49.5,29.90,NE,45,5.4,6.9,99,0.11,,,0.11,meteobridge,2013-04-09 11:10:00,
2013-04-09 07:15:00,49.6,49.5,29.89,North,0,5.4,5.4,99,0.11,,,0.11,meteobridge,2013-04-09 11:15:00,
2013-04-09 07:20:00,49.3,49.1,29.90,East,90,5.4,5.4,99,0.11,,,0.11,meteobridge,2013-04-09 11:20:00,
2013-04-09 07:25:00,48.9,48.7,29.88,North,0,3.8,4.5,99,0.11,,,0.11,meteobridge,2013-04-09 11:25:00,
2013-04-09 07:30:00,48.7,48.6,29.87,NE,45,4.5,6.9,99,0.12,,,0.12,meteobridge,2013-04-09 11:30:00,
2013-04-09 07:35:00,48.6,48.4,29.87,NE,45,5.4,5.4,99,0.09,,,0.12,meteobridge,2013-04-09 11:35:00,
2013-04-09 07:41:00,48.7,48.6,29.87,NNE,23,4.5,5.4,99,0.09,,,0.12,meteobridge,2013-04-09 11:41:00,
2013-04-09 07:46:00,48.9,48.7,29.88,East,90,3.1,5.4,99,0.08,,,0.12,meteobridge,2013-04-09 11:46:00,
2013-04-09 07:51:00,49.3,49.1,29.87,NE,45,7.6,7.6,99,0.08,,,0.12,meteobridge,2013-04-09 11:51:00,
2013-04-09 07:56:00,50.0,49.6,29.88,East,90,3.8,6.9,99,0.08,,,0.12,meteobridge,2013-04-09 11:56:00,
2013-04-09 08:01:00,50.4,50.0,29.87,North,0,6.9,6.9,99,0.06,,,0.12,meteobridge,2013-04-09 12:01:00,
2013-04-09 08:06:00,50.9,50.5,29.87,North,0,4.5,5.4,99,0.01,,,0.12,meteobridge,2013-04-09 12:06:00,
2013-04-09 08:12:00,51.1,50.7,29.87,NE,45,5.4,6.0,99,0.01,,,0.12,meteobridge,2013-04-09 12:12:00,
2013-04-09 08:17:00,51.4,51.1,29.86,North,0,6.9,6.9,99,0.01,,,0.12,meteobridge,2013-04-09 12:17:00,
2013-04-09 08:22:00,52.0,51.4,29.85,NE,45,5.4,5.4,98,0.01,,,0.12,meteobridge,2013-04-09 12:22:00,
2013-04-09 08:27:00,52.2,51.6,29.85,North,0,5.4,7.6,98,0.00,,,0.12,meteobridge,2013-04-09 12:27:00,
2013-04-09 08:32:00,52.2,51.6,29.85,East,90,5.4,6.9,98,0.00,,,0.12,meteobridge,2013-04-09 12:32:00,
2013-04-09 08:37:00,52.3,51.8,29.85,East,90,5.4,7.6,98,0.00,,,0.12,meteobridge,2013-04-09 12:37:00,
2013-04-09 08:43:00,52.3,51.8,29.85,NE,45,4.5,4.5,98,0.00,,,0.12,meteobridge,2013-04-09 12:43:00,
2013-04-09 08:48:00,52.3,51.8,29.85,East,90,5.4,6.0,98,0.00,,,0.12,meteobridge,2013-04-09 12:48:00,
2013-04-09 08:53:00,52.2,51.6,29.85,North,0,5.4,6.9,98,0.00,,,0.12,meteobridge,2013-04-09 12:53:00,
2013-04-09 08:58:00,52.3,51.8,29.85,East,90,5.4,5.4,98,0.00,,,0.12,meteobridge,2013-04-09 12:58:00,
2013-04-09 09:03:00,52.3,51.8,29.85,East,90,3.1,5.4,98,0.00,,,0.12,meteobridge,2013-04-09 13:03:00,
2013-04-09 09:08:00,52.3,51.8,29.85,ENE,68,3.1,4.5,98,0.00,,,0.12,meteobridge,2013-04-09 13:08:00,
2013-04-09 09:14:00,52.5,52.0,29.84,East,90,4.5,6.9,98,0.00,,,0.12,meteobridge,2013-04-09 13:14:00,
2013-04-09 09:19:00,53.1,52.5,29.83,NE,45,5.4,5.4,98,0.00,,,0.12,meteobridge,2013-04-09 13:19:00,
2013-04-09 09:24:00,53.6,52.7,29.84,NE,45,4.5,4.5,97,0.00,,,0.12,meteobridge,2013-04-09 13:24:00,
2013-04-09 09:29:00,54.1,53.2,29.83,East,90,8.3,8.3,97,0.00,,,0.12,meteobridge,2013-04-09 13:29:00,
2013-04-09 09:34:00,54.7,53.8,29.83,NE,45,7.6,7.6,97,0.00,,,0.12,meteobridge,2013-04-09 13:34:00,
2013-04-09 09:39:00,55.6,54.5,29.83,North,0,3.8,4.5,96,0.00,,,0.12,meteobridge,2013-04-09 13:39:00,
2013-04-09 09:44:00,55.9,53.6,29.83,West,270,4.5,6.0,92,0.00,,,0.12,meteobridge,2013-04-09 13:44:00,
2013-04-09 09:50:00,56.8,53.2,29.83,ENE,68,7.6,7.6,88,0.00,,,0.12,meteobridge,2013-04-09 13:50:00,
2013-04-09 09:55:00,57.0,53.2,29.82,ENE,68,3.1,5.4,87,0.00,,,0.12,meteobridge,2013-04-09 13:55:00,
2013-04-09 10:00:00,57.0,52.5,29.82,NE,45,4.5,9.2,85,0.00,,,0.12,meteobridge,2013-04-09 14:00:00,
2013-04-09 10:05:00,57.2,52.3,29.82,NE,45,4.5,6.0,84,0.00,,,0.12,meteobridge,2013-04-09 14:05:00,
2013-04-09 10:10:00,57.2,52.2,29.82,East,90,3.8,4.5,83,0.00,,,0.12,meteobridge,2013-04-09 14:10:00,
2013-04-09 10:15:00,57.9,53.1,29.82,East,90,5.4,5.4,84,0.00,,,0.12,meteobridge,2013-04-09 14:15:00,
2013-04-09 10:20:00,58.3,52.2,29.81,NE,45,5.4,6.9,80,0.00,,,0.12,meteobridge,2013-04-09 14:20:00,
2013-04-09 10:26:00,58.8,52.7,29.81,NE,45,5.4,6.0,80,0.00,,,0.12,meteobridge,2013-04-09 14:26:00,
2013-04-09 10:31:00,59.7,52.9,29.81,NNE,23,6.9,6.9,78,0.00,,,0.12,meteobridge,2013-04-09 14:31:00,
2013-04-09 10:36:00,60.3,52.3,29.81,SE,135,4.5,6.9,75,0.00,,,0.12,meteobridge,2013-04-09 14:36:00,
2013-04-09 10:41:00,60.8,52.2,29.81,East,90,4.5,5.4,73,0.00,,,0.12,meteobridge,2013-04-09 14:41:00,
2013-04-09 10:46:00,61.5,52.7,29.82,NE,45,6.0,6.0,73,0.00,,,0.12,meteobridge,2013-04-09 14:46:00,
2013-04-09 10:51:00,61.9,51.6,29.81,NW,315,4.5,6.0,69,0.00,,,0.12,meteobridge,2013-04-09 14:51:00,
2013-04-09 10:57:00,62.8,53.2,29.81,NE,45,3.1,3.1,71,0.00,,,0.12,meteobridge,2013-04-09 14:57:00,
2013-04-09 11:02:00,63.3,52.2,29.81,SSW,203,4.5,4.5,67,0.00,,,0.12,meteobridge,2013-04-09 15:02:00,
2013-04-09 11:07:00,63.5,51.4,29.81,NW,315,4.5,4.5,65,0.00,,,0.12,meteobridge,2013-04-09 15:07:00,
2013-04-09 11:12:00,64.0,51.6,29.81,East,90,4.5,4.5,64,0.00,,,0.12,meteobridge,2013-04-09 15:12:00,
2013-04-09 11:17:00,64.9,52.9,29.81,SE,135,3.8,3.8,65,0.00,,,0.12,meteobridge,2013-04-09 15:17:00,
2013-04-09 11:22:00,65.3,52.3,29.81,North,0,2.2,6.0,63,0.00,,,0.12,meteobridge,2013-04-09 15:22:00,
2013-04-09 11:28:00,64.6,51.3,29.81,South,180,4.5,4.5,62,0.00,,,0.12,meteobridge,2013-04-09 15:28:00,
2013-04-09 11:33:00,63.9,50.5,29.81,North,0,5.4,5.4,62,0.00,,,0.12,meteobridge,2013-04-09 15:33:00,
2013-04-09 11:38:00,63.3,50.5,29.81,NE,45,5.4,6.0,63,0.00,,,0.12,meteobridge,2013-04-09 15:38:00,
2013-04-09 11:43:00,63.7,50.9,29.80,North,0,4.5,7.6,63,0.00,,,0.12,meteobridge,2013-04-09 15:43:00,
2013-04-09 11:48:00,64.0,51.3,29.80,East,90,6.0,6.0,63,0.00,,,0.12,meteobridge,2013-04-09 15:48:00,
2013-04-09 11:53:00,64.9,52.5,29.80,SW,225,4.5,6.0,64,0.00,,,0.12,meteobridge,2013-04-09 15:53:00,
2013-04-09 11:58:00,64.6,51.3,29.79,West,270,3.8,4.5,62,0.00,,,0.12,meteobridge,2013-04-09 15:58:00,
2013-04-09 12:04:00,64.8,51.1,29.79,East,90,6.9,6.9,61,0.00,,,0.12,meteobridge,2013-04-09 16:04:00,
2013-04-09 12:09:00,63.9,50.5,29.79,South,180,5.4,6.9,62,0.00,,,0.12,meteobridge,2013-04-09 16:09:00,
2013-04-09 12:14:00,64.6,51.6,29.80,SW,225,5.4,5.4,63,0.00,,,0.12,meteobridge,2013-04-09 16:14:00,
2013-04-09 12:19:00,65.7,51.4,29.80,South,180,6.0,6.9,60,0.00,,,0.12,meteobridge,2013-04-09 16:19:00,
2013-04-09 12:24:00,65.3,51.1,29.80,South,180,6.9,6.9,60,0.00,,,0.12,meteobridge,2013-04-09 16:24:00,
2013-04-09 12:29:00,65.1,50.0,29.81,South,180,4.5,6.0,58,0.00,,,0.12,meteobridge,2013-04-09 16:29:00,
2013-04-09 12:34:00,64.8,50.2,29.81,SE,135,5.4,5.4,59,0.00,,,0.12,meteobridge,2013-04-09 16:34:00,
2013-04-09 12:39:00,65.5,51.3,29.81,SE,135,5.4,6.9,60,0.00,,,0.12,meteobridge,2013-04-09 16:39:00,
2013-04-09 12:44:00,66.2,52.0,29.81,NNE,23,5.4,5.4,60,0.00,,,0.12,meteobridge,2013-04-09 16:44:00,
2013-04-09 12:50:00,67.3,51.1,29.81,NE,45,5.4,6.0,56,0.00,,,0.12,meteobridge,2013-04-09 16:50:00,
2013-04-09 12:55:00,66.4,50.7,29.82,SE,135,5.4,6.9,57,0.00,,,0.12,meteobridge,2013-04-09 16:55:00,
2013-04-09 13:00:00,66.4,50.2,29.81,South,180,5.4,5.4,56,0.00,,,0.12,meteobridge,2013-04-09 17:00:00,
2013-04-09 13:05:00,66.6,50.9,29.82,South,180,6.0,6.0,57,0.00,,,0.12,meteobridge,2013-04-09 17:05:00,
2013-04-09 13:10:00,66.4,51.1,29.81,SE,135,3.8,3.8,58,0.00,,,0.12,meteobridge,2013-04-09 17:10:00,
2013-04-09 13:15:00,68.0,51.8,29.81,South,180,3.8,5.4,56,0.00,,,0.12,meteobridge,2013-04-09 17:15:00,
2013-04-09 13:21:00,67.3,50.5,29.81,SW,225,3.8,6.9,55,0.00,,,0.12,meteobridge,2013-04-09 17:21:00,
2013-04-09 13:26:00,67.5,51.6,29.82,SE,135,4.5,4.5,57,0.00,,,0.12,meteobridge,2013-04-09 17:26:00,
2013-04-09 13:31:00,67.3,51.4,29.82,SSW,203,4.5,6.0,57,0.00,,,0.12,meteobridge,2013-04-09 17:31:00,
2013-04-09 13:36:00,67.8,52.0,29.82,South,180,5.4,7.6,57,0.00,,,0.12,meteobridge,2013-04-09 17:36:00,
2013-04-09 13:41:00,68.5,51.8,29.83,South,180,6.0,6.0,55,0.00,,,0.12,meteobridge,2013-04-09 17:41:00,
2013-04-09 13:46:00,68.4,52.0,29.82,South,180,2.2,3.1,56,0.00,,,0.12,meteobridge,2013-04-09 17:46:00,
2013-04-09 13:51:00,70.2,52.2,29.82,SE,135,3.1,3.1,53,0.00,,,0.12,meteobridge,2013-04-09 17:51:00,
2013-04-09 13:57:00,71.1,52.5,29.83,West,270,4.5,4.5,52,0.00,,,0.12,meteobridge,2013-04-09 17:57:00,
2013-04-09 14:02:00,71.1,52.5,29.82,SSW,203,3.1,3.8,52,0.00,,,0.12,meteobridge,2013-04-09 18:02:00,
2013-04-09 14:07:00,71.4,52.9,29.82,SE,135,5.4,5.4,52,0.00,,,0.12,meteobridge,2013-04-09 18:07:00,
2013-04-09 14:12:00,71.2,51.6,29.83,SE,135,3.8,4.5,50,0.00,,,0.12,meteobridge,2013-04-09 18:12:00,
2013-04-09 14:17:00,72.3,52.2,29.83,SE,135,4.5,4.5,49,0.00,,,0.12,meteobridge,2013-04-09 18:17:00,
2013-04-09 14:22:00,71.6,50.4,29.83,SE,135,5.4,5.4,47,0.00,,,0.12,meteobridge,2013-04-09 18:22:00,
2013-04-09 14:28:00,71.1,51.4,29.83,East,90,6.0,6.0,50,0.00,,,0.12,meteobridge,2013-04-09 18:28:00,
2013-04-09 14:33:00,70.2,50.7,29.83,SW,225,3.1,6.9,50,0.00,,,0.12,meteobridge,2013-04-09 18:33:00,
2013-04-09 14:38:00,71.4,51.8,29.83,South,180,3.1,3.1,50,0.00,,,0.12,meteobridge,2013-04-09 18:38:00,
2013-04-09 14:43:00,72.3,51.4,29.83,SSE,158,3.1,3.1,48,0.00,,,0.12,meteobridge,2013-04-09 18:43:00,
2013-04-09 14:48:00,72.1,50.7,29.84,SW,225,3.8,3.8,47,0.00,,,0.12,meteobridge,2013-04-09 18:48:00,
2013-04-09 14:53:00,72.3,51.4,29.83,South,180,1.6,4.5,48,0.00,,,0.12,meteobridge,2013-04-09 18:53:00,
2013-04-09 14:58:00,72.5,51.1,29.84,West,270,2.2,3.1,47,0.00,,,0.12,meteobridge,2013-04-09 18:58:00,
2013-04-09 15:04:00,72.9,52.5,29.83,South,180,2.2,3.1,49,0.00,,,0.12,meteobridge,2013-04-09 19:04:00,
2013-04-09 15:09:00,72.9,50.9,29.84,South,180,3.8,3.8,46,0.00,,,0.12,meteobridge,2013-04-09 19:09:00,
2013-04-09 15:14:00,70.9,50.7,29.84,West,270,4.5,4.5,49,0.00,,,0.12,meteobridge,2013-04-09 19:14:00,
2013-04-09 15:19:00,69.4,50.5,29.85,SW,225,3.1,3.8,51,0.00,,,0.12,meteobridge,2013-04-09 19:19:00,
2013-04-09 15:24:00,66.7,49.6,29.85,WSW,248,3.8,3.8,54,0.00,,,0.12,meteobridge,2013-04-09 19:24:00,
2013-04-09 15:29:00,65.3,49.3,29.85,NW,315,3.1,4.5,56,0.00,,,0.12,meteobridge,2013-04-09 19:29:00,
2013-04-09 15:35:00,65.7,49.5,29.85,North,0,5.4,5.4,56,0.00,,,0.12,meteobridge,2013-04-09 19:35:00,
2013-04-09 15:40:00,64.2,48.7,29.85,West,270,3.1,4.5,57,0.00,,,0.12,meteobridge,2013-04-09 19:40:00,
2013-04-09 15:45:00,63.7,48.2,29.85,SW,225,4.5,4.5,57,0.00,,,0.12,meteobridge,2013-04-09 19:45:00,
2013-04-09 15:50:00,62.4,47.5,29.86,North,0,3.1,5.4,58,0.00,,,0.12,meteobridge,2013-04-09 19:50:00,
2013-04-09 15:55:00,60.4,47.8,29.86,West,270,3.8,4.5,63,0.00,,,0.12,meteobridge,2013-04-09 19:55:00,
2013-04-09 16:00:00,60.3,47.7,29.86,SW,225,3.1,3.1,63,0.00,,,0.12,meteobridge,2013-04-09 20:00:00,
2013-04-09 16:06:00,59.7,47.1,29.86,SW,225,3.8,4.5,63,0.00,,,0.12,meteobridge,2013-04-09 20:06:00,
2013-04-09 16:11:00,58.5,46.8,29.86,SW,225,4.5,6.0,65,0.00,,,0.12,meteobridge,2013-04-09 20:11:00,
2013-04-09 16:16:00,58.5,46.8,29.87,SW,225,3.8,6.9,65,0.00,,,0.12,meteobridge,2013-04-09 20:16:00,
2013-04-09 16:21:00,58.5,47.1,29.87,SW,225,5.4,5.4,66,0.00,,,0.12,meteobridge,2013-04-09 20:21:00,
2013-04-09 16:26:00,58.5,46.8,29.87,South,180,3.8,3.8,65,0.00,,,0.12,meteobridge,2013-04-09 20:26:00,
2013-04-09 16:31:00,59.0,46.4,29.87,West,270,2.2,6.0,63,0.00,,,0.12,meteobridge,2013-04-09 20:31:00,
2013-04-09 16:36:00,59.2,46.6,29.87,NW,315,3.1,4.5,63,0.00,,,0.12,meteobridge,2013-04-09 20:36:00,
2013-04-09 16:41:00,59.7,47.1,29.88,NW,315,4.5,4.5,63,0.00,,,0.12,meteobridge,2013-04-09 20:41:00,
2013-04-09 16:46:00,58.5,46.4,29.88,SW,225,3.8,3.8,64,0.00,,,0.12,meteobridge,2013-04-09 20:46:00,
2013-04-09 16:51:00,57.2,45.5,29.88,SW,225,2.2,4.5,65,0.00,,,0.12,meteobridge,2013-04-09 20:51:00,
2013-04-09 16:57:00,57.0,46.6,29.88,West,270,4.5,4.5,68,0.00,,,0.12,meteobridge,2013-04-09 20:57:00,
2013-04-09 17:02:00,57.0,46.2,29.89,WSW,248,3.1,4.5,67,0.00,,,0.12,meteobridge,2013-04-09 21:02:00,
2013-04-09 17:07:00,56.5,45.7,29.89,SW,225,3.1,6.0,67,0.00,,,0.12,meteobridge,2013-04-09 21:07:00,
2013-04-09 17:12:00,56.3,45.9,29.89,SW,225,3.1,4.5,68,0.00,,,0.12,meteobridge,2013-04-09 21:12:00,
2013-04-09 17:17:00,55.9,45.9,29.89,West,270,3.8,3.8,69,0.00,,,0.12,meteobridge,2013-04-09 21:17:00,
2013-04-09 17:22:00,55.8,45.7,29.89,WSW,248,2.2,3.1,69,0.00,,,0.12,meteobridge,2013-04-09 21:22:00,
2013-04-09 17:27:00,54.9,45.7,29.89,SW,225,3.8,3.8,71,0.00,,,0.12,meteobridge,2013-04-09 21:27:00,
2013-04-09 17:32:00,54.3,45.1,29.89,West,270,2.2,2.2,71,0.00,,,0.12,meteobridge,2013-04-09 21:32:00,
2013-04-09 17:37:00,54.0,45.1,29.89,SE,135,2.2,3.1,72,0.00,,,0.12,meteobridge,2013-04-09 21:37:00,
2013-04-09 17:43:00,54.0,45.1,29.89,WNW,293,3.1,3.8,72,0.00,,,0.12,meteobridge,2013-04-09 21:43:00,
2013-04-09 17:48:00,53.4,45.0,29.90,NW,315,3.8,3.8,73,0.00,,,0.12,meteobridge,2013-04-09 21:48:00,
2013-04-09 17:53:00,53.1,44.6,29.90,SW,225,3.8,3.8,73,0.00,,,0.12,meteobridge,2013-04-09 21:53:00,
2013-04-09 17:58:00,52.9,44.8,29.90,SW,225,3.1,3.1,74,0.00,,,0.12,meteobridge,2013-04-09 21:58:00,
2013-04-09 18:03:00,52.7,45.0,29.91,NW,315,2.2,3.8,75,0.00,,,0.12,meteobridge,2013-04-09 22:03:00,
2013-04-09 18:08:00,52.3,44.6,29.91,SSE,158,3.1,3.1,75,0.00,,,0.12,meteobridge,2013-04-09 22:08:00,
2013-04-09 18:13:00,52.2,44.4,29.91,SW,225,1.6,3.1,75,0.00,,,0.12,meteobridge,2013-04-09 22:13:00,
2013-04-09 18:19:00,52.3,44.6,29.92,West,270,2.2,2.2,75,0.00,,,0.12,meteobridge,2013-04-09 22:19:00,
2013-04-09 18:24:00,52.2,44.4,29.92,South,180,2.2,2.2,75,0.00,,,0.12,meteobridge,2013-04-09 22:24:00,
2013-04-09 18:29:00,52.2,44.4,29.92,SE,135,1.6,3.1,75,0.00,,,0.12,meteobridge,2013-04-09 22:29:00,
2013-04-09 18:34:00,52.0,44.2,29.93,SE,135,2.2,2.2,75,0.00,,,0.12,meteobridge,2013-04-09 22:34:00,
2013-04-09 18:39:00,51.6,44.2,29.93,South,180,3.1,3.1,76,0.00,,,0.12,meteobridge,2013-04-09 22:39:00,
2013-04-09 18:44:00,51.4,44.4,29.93,WSW,248,2.2,3.1,77,0.00,,,0.12,meteobridge,2013-04-09 22:44:00,
2013-04-09 18:49:00,50.9,44.2,29.94,West,270,2.2,4.5,78,0.00,,,0.12,meteobridge,2013-04-09 22:49:00,
2013-04-09 18:54:00,50.5,44.2,29.93,South,180,3.1,5.4,79,0.00,,,0.12,meteobridge,2013-04-09 22:54:00,
2013-04-09 18:59:00,50.4,44.1,29.93,SW,225,3.1,3.8,79,0.00,,,0.12,meteobridge,2013-04-09 22:59:00,
2013-04-09 19:04:00,50.0,44.1,29.93,NW,315,3.1,3.8,80,0.00,,,0.12,meteobridge,2013-04-09 23:04:00,
2013-04-09 19:10:00,49.5,43.9,29.93,SW,225,3.8,3.8,81,0.00,,,0.12,meteobridge,2013-04-09 23:10:00,
2013-04-09 19:15:00,49.1,43.9,29.93,NW,315,1.6,3.1,82,0.00,,,0.12,meteobridge,2013-04-09 23:15:00,
2013-04-09 19:20:00,48.9,44.1,29.93,West,270,1.6,3.1,83,0.00,,,0.12,meteobridge,2013-04-09 23:20:00,
2013-04-09 19:25:00,48.6,43.9,29.92,West,270,1.6,2.2,84,0.00,,,0.12,meteobridge,2013-04-09 23:25:00,
2013-04-09 19:30:00,48.2,43.5,29.93,West,270,1.6,3.1,84,0.00,,,0.12,meteobridge,2013-04-09 23:30:00,
2013-04-09 19:35:00,48.0,43.7,29.93,SW,225,3.1,4.5,85,0.00,,,0.12,meteobridge,2013-04-09 23:35:00,
2013-04-09 19:41:00,47.8,43.9,29.93,SW,225,2.2,3.8,86,0.00,,,0.12,meteobridge,2013-04-09 23:41:00,
2013-04-09 19:46:00,47.5,43.5,29.93,NW,315,0.7,1.6,86,0.00,,,0.12,meteobridge,2013-04-09 23:46:00,
2013-04-09 19:51:00,47.3,43.3,29.94,West,270,1.6,2.2,86,0.00,,,0.12,meteobridge,2013-04-09 23:51:00,
2013-04-09 19:56:00,47.1,43.5,29.94,West,270,2.2,3.8,87,0.00,,,0.12,meteobridge,2013-04-09 23:56:00,
2013-04-09 20:01:00,46.9,43.3,29.95,West,270,1.6,1.6,87,0.00,,,0.12,meteobridge,2013-04-10 00:01:00,
2013-04-09 20:06:00,46.8,42.8,29.95,NW,315,2.2,3.8,86,0.00,,,0.12,meteobridge,2013-04-10 00:06:00,
2013-04-09 20:12:00,46.6,43.0,29.95,West,270,1.6,3.1,87,0.00,,,0.12,meteobridge,2013-04-10 00:12:00,
2013-04-09 20:17:00,46.4,42.8,29.96,North,0,2.2,2.2,87,0.00,,,0.12,meteobridge,2013-04-10 00:17:00,
2013-04-09 20:22:00,46.2,42.6,29.97,WNW,293,2.2,2.2,87,0.00,,,0.12,meteobridge,2013-04-10 00:22:00,
2013-04-09 20:27:00,46.0,42.4,29.97,West,270,1.6,1.6,87,0.00,,,0.12,meteobridge,2013-04-10 00:27:00,
2013-04-09 20:32:00,45.9,42.3,29.96,North,0,0.7,0.7,87,0.00,,,0.12,meteobridge,2013-04-10 00:32:00,
2013-04-09 20:37:00,45.9,42.4,29.96,West,270,0.7,1.6,88,0.00,,,0.12,meteobridge,2013-04-10 00:37:00,
2013-04-09 20:43:00,45.7,42.3,29.97,West,270,0.7,0.7,88,0.00,,,0.12,meteobridge,2013-04-10 00:43:00,
2013-04-09 20:48:00,45.5,42.1,29.97,NE,45,1.6,2.2,88,0.00,,,0.12,meteobridge,2013-04-10 00:48:00,
2013-04-09 20:53:00,45.3,41.9,29.97,NE,45,0.0,0.0,88,0.00,,,0.12,meteobridge,2013-04-10 00:53:00,
2013-04-09 20:58:00,45.1,41.7,29.97,NE,45,1.6,1.6,88,0.00,,,0.12,meteobridge,2013-04-10 00:58:00,
2013-04-09 21:03:00,45.0,41.5,29.98,NE,45,0.0,0.7,88,0.00,,,0.12,meteobridge,2013-04-10 01:03:00,
2013-04-09 21:08:00,45.0,41.5,29.97,NE,45,1.6,1.6,88,0.00,,,0.12,meteobridge,2013-04-10 01:08:00,
2013-04-09 21:14:00,45.0,41.9,29.97,NE,45,0.0,0.0,89,0.00,,,0.12,meteobridge,2013-04-10 01:14:00,
2013-04-09 21:19:00,44.8,41.7,29.98,NE,45,0.0,0.0,89,0.00,,,0.12,meteobridge,2013-04-10 01:19:00,
2013-04-09 21:24:00,44.8,41.7,29.98,NE,45,0.0,0.0,89,0.00,,,0.12,meteobridge,2013-04-10 01:24:00,
2013-04-09 21:29:00,44.6,41.5,29.98,NE,45,0.0,0.0,89,0.00,,,0.12,meteobridge,2013-04-10 01:29:00,
2013-04-09 21:34:00,44.6,41.5,29.99,NE,45,0.0,0.0,89,0.00,,,0.12,meteobridge,2013-04-10 01:34:00,
2013-04-09 21:39:00,44.4,41.7,29.99,NE,45,0.0,0.0,90,0.00,,,0.12,meteobridge,2013-04-10 01:39:00,
2013-04-09 21:44:00,44.2,41.5,29.99,NE,45,0.0,0.0,90,0.00,,,0.12,meteobridge,2013-04-10 01:44:00,
2013-04-09 21:49:00,43.9,41.2,29.99,NE,45,0.0,0.0,90,0.00,,,0.12,meteobridge,2013-04-10 01:49:00,
2013-04-09 21:55:00,43.5,40.8,29.99,SW,225,0.0,0.0,90,0.00,,,0.12,meteobridge,2013-04-10 01:55:00,
2013-04-09 22:00:00,43.3,40.6,29.99,South,180,0.0,0.0,90,0.00,,,0.12,meteobridge,2013-04-10 02:00:00,
2013-04-09 22:05:00,43.2,40.6,29.99,South,180,0.0,0.0,91,0.00,,,0.12,meteobridge,2013-04-10 02:05:00,
2013-04-09 22:10:00,43.0,40.3,29.99,South,180,0.0,0.0,90,0.00,,,0.12,meteobridge,2013-04-10 02:10:00,
2013-04-09 22:15:00,42.8,40.3,29.99,NW,315,0.0,0.0,91,0.00,,,0.12,meteobridge,2013-04-10 02:15:00,
2013-04-09 22:20:00,42.8,40.3,29.99,NW,315,0.0,0.0,91,0.00,,,0.12,meteobridge,2013-04-10 02:20:00,
2013-04-09 22:26:00,42.4,40.6,29.99,NW,315,0.0,0.0,93,0.00,,,0.12,meteobridge,2013-04-10 02:26:00,
2013-04-09 22:31:00,42.3,40.5,29.98,NW,315,0.0,0.0,93,0.00,,,0.12,meteobridge,2013-04-10 02:31:00,
2013-04-09 22:36:00,42.3,40.5,29.98,NW,315,0.0,0.0,93,0.00,,,0.12,meteobridge,2013-04-10 02:36:00,
2013-04-09 22:41:00,42.1,40.3,29.98,NE,45,2.2,2.2,93,0.00,,,0.12,meteobridge,2013-04-10 02:41:00,
2013-04-09 22:46:00,41.7,39.9,29.98,SE,135,0.7,1.6,93,0.00,,,0.12,meteobridge,2013-04-10 02:46:00,
2013-04-09 22:51:00,41.7,40.1,29.99,SE,135,0.0,0.0,94,0.00,,,0.12,meteobridge,2013-04-10 02:51:00,
2013-04-09 22:57:00,41.9,40.3,29.99,NE,45,0.0,0.7,94,0.00,,,0.12,meteobridge,2013-04-10 02:57:00,
2013-04-09 23:02:00,42.1,40.5,29.99,NE,45,0.0,0.0,94,0.00,,,0.12,meteobridge,2013-04-10 03:02:00,
2013-04-09 23:07:00,42.1,40.5,29.99,NE,45,0.0,0.0,94,0.00,,,0.12,meteobridge,2013-04-10 03:07:00,
2013-04-09 23:12:00,42.1,40.5,29.99,NE,45,0.0,0.0,94,0.00,,,0.12,meteobridge,2013-04-10 03:12:00,
2013-04-09 23:17:00,42.3,41.0,29.98,NE,45,0.0,0.0,95,0.00,,,0.12,meteobridge,2013-04-10 03:17:00,
2013-04-09 23:22:00,42.4,41.2,29.98,NW,315,0.0,0.7,95,0.00,,,0.12,meteobridge,2013-04-10 03:22:00,
2013-04-09 23:28:00,42.6,41.4,29.98,North,0,0.7,0.7,95,0.00,,,0.12,meteobridge,2013-04-10 03:28:00,
2013-04-09 23:33:00,42.6,41.5,29.97,North,0,0.0,0.0,96,0.00,,,0.12,meteobridge,2013-04-10 03:33:00,
2013-04-09 23:38:00,42.8,41.5,29.97,SE,135,0.0,0.0,95,0.00,,,0.12,meteobridge,2013-04-10 03:38:00,
2013-04-09 23:43:00,43.2,41.9,29.97,East,90,0.0,0.0,95,0.00,,,0.12,meteobridge,2013-04-10 03:43:00,
2013-04-09 23:48:00,43.3,42.1,29.96,NE,45,0.0,0.0,95,0.00,,,0.12,meteobridge,2013-04-10 03:48:00,
2013-04-09 23:53:00,43.7,42.4,29.96,SW,225,0.0,0.0,95,0.00,,,0.12,meteobridge,2013-04-10 03:53:00,
2013-04-09 23:58:00,43.9,42.6,29.96,North,0,0.0,0.0,95,0.00,,,0.12,meteobridge,2013-04-10 03:58:00,